Lugano, Switzerland

6:24 AM CET on February 20, 2017 (GMT +0100)
Lugano

Weather History for LSZA - November, 2012

Change the Weather History Date:

Tuesday, November 6, 2012

  Actual Average Record
Temperature  
Mean Temperature 50 °F -  
Max Temperature 62 °F 50 °F 64 °F (2007)
Min Temperature 37 °F 38 °F 32 °F (1998)
Degree Days  
Heating Degree Days 16    
Moisture  
Dew Point 33 °F    
Average Humidity 59    
Maximum Humidity 100    
Minimum Humidity 14    
Precipitation  
Precipitation 0.00 in 0.15 in - ()
Sea Level Pressure  
Sea Level Pressure 29.93 in    
Wind  
Wind Speed 3 mph ()    
Max Wind Speed 13 mph    
Max Gust Speed -    
Averages and records for this station are not official NWS values.
T = Trace of Precipitation, MM = Missing Value Source: Averaged Metar Reports

Daily Weather History Graph

Daily Weather History Graph

Search for Another Location

Airport or City:

Trip Planner

Search our weather history database for the weather conditions in past years. The results will help you decide how hot, cold, wet, or windy it might be!

Date:

Astronomy

Nov. 06, 2012 Rise Set
Actual Time 7:12 AM CET 5:02 PM CET
Civil Twilight 6:40 AM CET 5:34 PM CET
Nautical Twilight 6:04 AM CET 6:10 PM CET
Astronomical Twilight 5:29 AM CET 6:44 PM CET
Moon 11:27 PM CET (11/6) 12:53 PM CET (11/6)
Length of Visible Light 10h 53m
Length of Day
9h 50m
Waning Gibbous, 56% of the Moon is Illuminated
Nov 6
Waning Gibbous
Nov 7
Last Quarter
Nov 13
New
Nov 20
First Quarter
Nov 28
Full

Hourly Weather History & Observations

Time (CET) Temp. Windchill Dew Point Humidity Pressure Visibility Wind Dir Wind Speed Gust Speed Precip Events Conditions
12:00 AM 46 °F - 37 °F 62% 29.83 in - North 3.5 mph - -  
12:20 AM 42.8 °F 41.1 °F 39.2 °F 87% 29.80 in - Variable 3.5 mph - N/A   Clear
12:50 AM 41.0 °F - 37.4 °F 87% 29.80 in - Variable 1.2 mph - N/A   Clear
1:20 AM 41.0 °F 39.0 °F 37.4 °F 87% 29.80 in - Variable 3.5 mph - N/A   Clear
1:50 AM 41.0 °F - 37.4 °F 87% 29.83 in - Variable 1.2 mph - N/A   Clear
2:00 AM 44 °F - 36 °F 66% 29.85 in - 3.5 mph - -  
2:20 AM 39.2 °F - 37.4 °F 93% 29.83 in - Variable 1.2 mph - N/A   Clear
2:50 AM 39.2 °F - 37.4 °F 93% 29.83 in - Variable 2.3 mph - N/A   Clear
3:00 AM 45 °F - 37 °F 64% 29.86 in - Calm Calm - -  
3:20 AM 39.2 °F - 37.4 °F 93% 29.83 in - Variable 1.2 mph - N/A   Clear
3:50 AM 39.2 °F - 37.4 °F 93% 29.83 in - Variable 1.2 mph - N/A   Clear
4:20 AM 39.2 °F - 37.4 °F 93% 29.83 in - Variable 1.2 mph - N/A   Clear
4:50 AM 39.2 °F - 37.4 °F 93% 29.83 in - Variable 2.3 mph - N/A   Clear
5:00 AM 44 °F - 34 °F 58% 29.87 in - North 3.5 mph - -  
5:20 AM 39.2 °F - 35.6 °F 87% 29.86 in - Variable 1.2 mph - N/A   Clear
5:50 AM 39.2 °F - 37.4 °F 93% 29.86 in - Variable 1.2 mph - N/A   Clear
6:00 AM 43 °F - 34 °F 62% 29.88 in - 3.5 mph - -  
6:20 AM 37.4 °F - 35.6 °F 93% 29.86 in - Variable 2.3 mph - N/A   Clear
6:31 AM 39.2 °F - 35.6 °F 87% 29.86 in - Variable 1.2 mph - N/A   Clear
6:50 AM 37.4 °F - 35.6 °F 93% 29.86 in - Variable 1.2 mph - N/A   Clear
7:20 AM 37.4 °F - 35.6 °F 93% 29.89 in - Variable 2.3 mph - N/A   Clear
7:50 AM 37.4 °F 34.9 °F 35.6 °F 93% 29.89 in - Variable 3.5 mph - N/A   Clear
8:00 AM 42 °F - 34 °F 64% 29.93 in - North 3.5 mph - -  
8:20 AM 37.4 °F - 37.4 °F 100% 29.89 in - Variable 2.3 mph - N/A   Clear
8:50 AM 41.0 °F - 37.4 °F 87% 29.89 in - Variable 1.2 mph - N/A   Clear
9:00 AM 46 °F - 34 °F 51% 29.92 in - WNW 1.2 mph - -  
9:20 AM 46.4 °F - 39.2 °F 76% 29.89 in - Variable 1.2 mph - N/A   Clear
9:50 AM 48.2 °F - 39.2 °F 71% 29.89 in - Variable 2.3 mph - N/A   Clear
10:20 AM 51.8 °F - 35.6 °F 54% 29.92 in - Variable 3.5 mph - N/A   Clear
10:50 AM 53.6 °F - 33.8 °F 47% 29.92 in - Variable 1.2 mph - N/A   Clear
11:00 AM 50 °F - 38 °F 53% 29.93 in - SSW 2.3 mph - -  
11:20 AM 55.4 °F - 35.6 °F 47% 29.92 in - Variable 3.5 mph - N/A   Clear
11:50 AM 55.4 °F - 35.6 °F 47% 29.92 in - Variable 3.5 mph - N/A   Clear
12:00 PM 52 °F - 37 °F 44% 29.92 in - SE 2.3 mph - -  
12:20 PM 59.0 °F - 35.6 °F 42% 29.89 in - SSE 4.6 mph - N/A   Clear
12:50 PM 59.0 °F - 32.0 °F 36% 29.89 in - South 4.6 mph - N/A   Clear
1:20 PM 60.8 °F - 33.8 °F 36% 29.89 in - South 4.6 mph - N/A   Clear
1:50 PM 60.8 °F - 37.4 °F 42% 29.89 in - South 5.8 mph - N/A   Clear
2:00 PM 61 °F - 28 °F 17% 29.89 in - North 10.4 mph - -  
2:20 PM 62.6 °F - 30.2 °F 30% 29.89 in - North 11.5 mph - N/A   Clear
2:50 PM 60.8 °F - 28.4 °F 29% 29.89 in - NNE 11.5 mph - N/A   Clear
3:00 PM 60 °F - 23 °F 14% 29.91 in - North 11.5 mph - -  
3:20 PM 60.8 °F - 28.4 °F 29% 29.92 in - North 12.7 mph - N/A   Clear
3:50 PM 55.4 °F - 30.2 °F 38% 29.92 in - North 11.5 mph - N/A   Clear
4:20 PM 55.4 °F - 28.4 °F 36% 29.95 in - North 12.7 mph - N/A   Clear
4:50 PM 53.6 °F - 30.2 °F 41% 29.95 in - North 9.2 mph - N/A   Clear
5:00 PM 56 °F - 24 °F 17% 29.97 in - North 10.4 mph - -  
5:20 PM 51.8 °F - 28.4 °F 41% 29.98 in - North 10.4 mph - N/A   Clear
5:50 PM 50.0 °F - 26.6 °F 40% 30.01 in - North 6.9 mph - N/A   Clear
6:00 PM 55 °F - 24 °F 19% 30.01 in - NNE 12.7 mph - -  
6:20 PM 50.0 °F - 28.4 °F 43% 30.01 in - Variable 3.5 mph - N/A   Clear
6:50 PM 51.8 °F - 24.8 °F 35% 30.04 in - Variable 3.5 mph - N/A   Clear
7:20 PM 46.4 °F - 28.4 °F 50% 30.04 in - Variable 1.2 mph - N/A   Clear
7:50 PM 46.4 °F - 30.2 °F 53% 30.06 in - Variable 1.2 mph - N/A   Clear
8:00 PM 51 °F - 26 °F 25% 30.08 in - North 6.9 mph - -  
8:20 PM 44.6 °F 43.1 °F 32.0 °F 61% 30.06 in - North 3.5 mph - N/A   Clear
8:50 PM 44.6 °F - 32.0 °F 61% 30.09 in - Variable 2.3 mph - N/A   Clear
9:00 PM 54 °F - 22 °F 17% 30.10 in - NNE 11.5 mph - -  
9:20 PM 44.6 °F 43.1 °F 32.0 °F 61% 30.09 in - Variable 3.5 mph - N/A   Clear
9:50 PM 42.8 °F - 30.2 °F 61% 30.12 in - Variable 1.2 mph - N/A   Clear
10:20 PM 42.8 °F - 30.2 °F 61% 30.12 in - Variable 1.2 mph - N/A   Clear
10:50 PM 41.0 °F - 33.8 °F 76% 30.12 in - Variable 2.3 mph - N/A   Clear
11:00 PM 51 °F - 22 °F 20% 30.15 in - NNE 5.8 mph - -  
11:20 PM 44.6 °F 40.2 °F 26.6 °F 49% 30.15 in - North 8.1 mph - N/A   Clear
11:50 PM 44.6 °F - 30.2 °F 57% 30.15 in - Variable 2.3 mph - N/A   Clear